| time (UTC) | temp C | wind direction | speed KPH | gust KPH | rain 1hr cm | rain 24hr cm | rain mn cm | humidity % | barometer mb |
| 20260507124538 | 11 | 206 | 0.0 | 0.0 | 0.00 | 0.00 | 0.00 | 82 | 1012.6 |
| 20260507124100 | 11 | 204 | 0.0 | 1.6 | 0.00 | 0.00 | 0.00 | 83 | 1012.5 |
| 20260507124004 | 11 | 204 | 0.0 | 1.6 | 0.00 | 0.00 | 0.00 | 83 | 1012.4 |
| 20260507123524 | 11 | 212 | 0.0 | 1.6 | 0.00 | 0.00 | 0.00 | 83 | 1012.5 |
| 20260507123100 | 11 | 212 | 0.0 | 0.0 | 0.00 | 0.00 | 0.00 | 83 | 1012.6 |
| 20260507123002 | 11 | 212 | 0.0 | 0.0 | 0.00 | 0.00 | 0.00 | 84 | 1012.6 |
| 20260507122519 | 11 | 170 | 0.0 | 0.0 | 0.00 | 0.00 | 0.00 | 84 | 1012.5 |
| 20260507122045 | 11 | 191 | 0.0 | 0.0 | 0.00 | 0.00 | 0.00 | 85 | 1012.5 |
| 20260507121532 | 11 | 220 | 0.0 | 0.0 | 0.00 | 0.00 | 0.00 | 86 | 1012.4 |
| 20260507121049 | 11 | 221 | 0.0 | 0.0 | 0.00 | 0.00 | 0.00 | 86 | 1012.3 |
| 20260507120529 | 11 | 221 | 0.0 | 0.0 | 0.00 | 0.00 | 0.00 | 88 | 1012.2 |
| 20260507120050 | 11 | 224 | 0.0 | 4.8 | 0.00 | 0.00 | 0.00 | 89 | 1012.2 |
| 20260507115531 | 11 | 160 | 0.0 | 4.8 | 0.00 | 0.00 | 0.00 | 90 | 1012.1 |
| 20260507115006 | 11 | 105 | 0.0 | 0.0 | 0.00 | 0.00 | 0.00 | 91 | 1012.1 |
| 20260507114524 | 11 | 205 | 0.0 | 0.0 | 0.00 | 0.00 | 0.00 | 91 | 1012.1 |
| 20260507114006 | 11 | 237 | 0.0 | 0.0 | 0.00 | 0.00 | 0.00 | 92 | 1012.1 |
| 20260507113531 | 11 | 174 | 0.0 | 0.0 | 0.00 | 0.00 | 0.00 | 92 | 1012.0 |
| 20260507113049 | 11 | 184 | 0.0 | 0.0 | 0.00 | 0.00 | 0.00 | 92 | 1012.0 |
| 20260507112538 | 11 | 180 | 0.0 | 0.0 | 0.00 | 0.00 | 0.00 | 93 | 1012.2 |
| 20260507112052 | 11 | 180 | 0.0 | 0.0 | 0.00 | 0.00 | 0.00 | 93 | 1012.1 |
| 20260507111541 | 11 | 180 | 0.0 | 0.0 | 0.00 | 0.00 | 0.00 | 93 | 1012.1 |
| 20260507111055 | 11 | 180 | 0.0 | 0.0 | 0.00 | 0.00 | 0.00 | 93 | 1012.2 |
| 20260507110521 | 11 | 179 | 0.0 | 0.0 | 0.00 | 0.00 | 0.00 | 93 | 1012.0 |
| 20260507110100 | 11 | 180 | 0.0 | 0.0 | 0.00 | 0.00 | 0.00 | 93 | 1011.9 |
| 20260507105524 | 11 | 180 | 0.0 | 0.0 | 0.00 | 0.00 | 0.00 | 93 | 1011.9 |
| 20260507105059 | 11 | 179 | 0.0 | 0.0 | 0.00 | 0.00 | 0.00 | 93 | 1011.9 |
| 20260507105001 | 11 | 179 | 0.0 | 0.0 | 0.00 | 0.00 | 0.00 | 93 | 1011.9 |
| 20260507104526 | 11 | 179 | 0.0 | 0.0 | 0.00 | 0.00 | 0.00 | 93 | 1011.8 |
| 20260507104042 | 11 | 179 | 0.0 | 0.0 | 0.00 | 0.00 | 0.00 | 93 | 1011.9 |
| 20260507103523 | 11 | 179 | 0.0 | 0.0 | 0.00 | 0.00 | 0.00 | 93 | 1011.8 |
| 20260507103046 | 11 | 179 | 0.0 | 0.0 | 0.00 | 0.00 | 0.00 | 93 | 1011.8 |
| 20260507102509 | 11 | 179 | 0.0 | 0.0 | 0.00 | 0.00 | 0.00 | 93 | 1011.5 |
| 20260507102047 | 11 | 180 | 0.0 | 0.0 | 0.00 | 0.00 | 0.00 | 93 | 1011.5 |
| 20260507101517 | 11 | 179 | 0.0 | 0.0 | 0.00 | 0.00 | 0.00 | 93 | 1011.4 |
| 20260507101049 | 11 | 179 | 0.0 | 0.0 | 0.00 | 0.00 | 0.00 | 93 | 1011.4 |
| 20260507100511 | 11 | 179 | 0.0 | 0.0 | 0.00 | 0.00 | 0.00 | 93 | 1011.2 |
| 20260507100035 | 11 | 179 | 0.0 | 0.0 | 0.00 | 0.00 | 0.00 | 93 | 1011.3 |
| 20260507095514 | 11 | 179 | 0.0 | 0.0 | 0.00 | 0.00 | 0.00 | 93 | 1011.4 |
| 20260507095036 | 11 | 179 | 0.0 | 0.0 | 0.00 | 0.00 | 0.00 | 93 | 1011.3 |
| 20260507094602 | 11 | 179 | 0.0 | 0.0 | 0.00 | 0.00 | 0.00 | 93 | 1011.3 |
| 20260507094041 | 11 | 179 | 0.0 | 0.0 | 0.00 | 0.00 | 0.00 | 93 | 1011.3 |
| 20260507093505 | 11 | 179 | 0.0 | 0.0 | 0.00 | 0.00 | 0.00 | 93 | 1011.0 |
| 20260507093045 | 11 | 179 | 0.0 | 0.0 | 0.00 | 0.00 | 0.00 | 93 | 1011.1 |
| 20260507092509 | 11 | 179 | 0.0 | 0.0 | 0.00 | 0.00 | 0.00 | 93 | 1011.2 |
| 20260507092032 | 11 | 179 | 0.0 | 0.0 | 0.00 | 0.00 | 0.00 | 93 | 1011.2 |
| 20260507091533 | 11 | 179 | 0.0 | 0.0 | 0.00 | 0.00 | 0.00 | 93 | 1011.4 |
| 20260507091037 | 11 | 179 | 0.0 | 0.0 | 0.00 | 0.00 | 0.00 | 93 | 1011.3 |
| 20260507090518 | 11 | 176 | 0.0 | 0.0 | 0.00 | 0.00 | 0.00 | 93 | 1011.4 |
| 20260507090055 | 11 | 176 | 0.0 | 0.0 | 0.00 | 0.00 | 0.00 | 93 | 1011.3 |
| 20260507085521 | 11 | 176 | 0.0 | 0.0 | 0.00 | 0.00 | 0.00 | 93 | 1011.1 |
| 20260507085053 | 11 | 176 | 0.0 | 0.0 | 0.00 | 0.00 | 0.00 | 93 | 1011.0 |
| 20260507084539 | 11 | 176 | 0.0 | 0.0 | 0.00 | 0.00 | 0.00 | 93 | 1010.9 |
| 20260507084057 | 11 | 176 | 0.0 | 0.0 | 0.00 | 0.00 | 0.00 | 93 | 1010.9 |
| 20260507083523 | 11 | 176 | 0.0 | 0.0 | 0.00 | 0.00 | 0.00 | 92 | 1010.9 |
| 20260507083003 | 11 | 176 | 0.0 | 0.0 | 0.00 | 0.00 | 0.00 | 92 | 1010.8 |
| 20260507082522 | 11 | 176 | 0.0 | 0.0 | 0.00 | 0.00 | 0.00 | 92 | 1010.8 |
| 20260507082043 | 11 | 176 | 0.0 | 0.0 | 0.00 | 0.00 | 0.00 | 92 | 1010.6 |
| 20260507081531 | 11 | 176 | 0.0 | 0.0 | 0.00 | 0.00 | 0.00 | 92 | 1010.5 |
| 20260507081045 | 11 | 176 | 0.0 | 0.0 | 0.00 | 0.00 | 0.00 | 92 | 1010.4 |
| 20260507080533 | 11 | 177 | 0.0 | 0.0 | 0.00 | 0.00 | 0.00 | 92 | 1010.3 |
| 20260507080051 | 11 | 166 | 0.0 | 0.0 | 0.00 | 0.00 | 0.00 | 92 | 1010.4 |
| 20260507075515 | 11 | 166 | 0.0 | 0.0 | 0.00 | 0.00 | 0.00 | 92 | 1010.3 |
| 20260507075039 | 11 | 166 | 0.0 | 0.0 | 0.00 | 0.00 | 0.00 | 91 | 1010.3 |
| 20260507074521 | 11 | 217 | 0.0 | 0.0 | 0.00 | 0.00 | 0.00 | 91 | 1010.3 |
| 20260507074045 | 11 | 213 | 0.0 | 0.0 | 0.00 | 0.00 | 0.00 | 91 | 1010.2 |
| 20260507073509 | 11 | 191 | 0.0 | 0.0 | 0.00 | 0.00 | 0.00 | 91 | 1010.0 |
| 20260507073058 | 11 | 186 | 0.0 | 0.0 | 0.00 | 0.00 | 0.00 | 91 | 1010.0 |
| 20260507072509 | 11 | 181 | 0.0 | 0.0 | 0.00 | 0.00 | 0.00 | 90 | 1010.2 |
| 20260507072033 | 12 | 176 | 0.0 | 0.0 | 0.00 | 0.00 | 0.00 | 90 | 1010.1 |
| 20260507071509 | 12 | 141 | 0.0 | 9.7 | 0.00 | 0.00 | 0.00 | 90 | 1010.1 |
| 20260507071029 | 12 | 198 | 0.0 | 6.4 | 0.00 | 0.00 | 0.00 | 91 | 1010.1 |
| 20260507070549 | 12 | 182 | 0.0 | 3.2 | 0.00 | 0.00 | 0.00 | 91 | 1010.2 |
| 20260507070030 | 12 | 192 | 0.0 | 3.2 | 0.00 | 0.00 | 0.00 | 91 | 1010.2 |
| 20260507065553 | 12 | 198 | 0.0 | 1.6 | 0.00 | 0.00 | 0.00 | 91 | 1010.1 |
| 20260507065038 | 12 | 183 | 0.0 | 12.9 | 0.00 | 0.00 | 0.00 | 92 | 1010.3 |
| 20260507064553 | 12 | 197 | 0.0 | 12.9 | 0.00 | 0.00 | 0.00 | 92 | 1010.2 |
| 20260507064015 | 12 | 243 | 0.0 | 0.0 | 0.00 | 0.00 | 0.00 | 93 | 1010.3 |
| 20260507063537 | 12 | 233 | 0.0 | 0.0 | 0.00 | 0.00 | 0.00 | 93 | 1010.4 |
| 20260507063017 | 12 | 217 | 0.0 | 1.6 | 0.00 | 0.00 | 0.00 | 93 | 1010.1 |
| 20260507062538 | 12 | 189 | 0.0 | 0.0 | 0.00 | 0.00 | 0.00 | 93 | 1010.0 |
| 20260507062019 | 12 | 259 | 0.0 | 0.0 | 0.00 | 0.00 | 0.00 | 93 | 1010.0 |
| 20260507061541 | 12 | 210 | 0.0 | 0.0 | 0.00 | 0.00 | 0.00 | 93 | 1009.8 |
| 20260507061018 | 12 | 198 | 0.0 | 0.0 | 0.00 | 0.00 | 0.00 | 93 | 1010.1 |
| 20260507060540 | 12 | 212 | 0.0 | 0.0 | 0.00 | 0.00 | 0.00 | 93 | 1010.2 |
| 20260507060029 | 12 | 198 | 0.0 | 0.0 | 0.00 | 0.00 | 0.00 | 93 | 1010.4 |
| 20260507055539 | 12 | 198 | 0.0 | 0.0 | 0.00 | 0.00 | 0.00 | 93 | 1010.1 |
| 20260507055024 | 12 | 196 | 0.0 | 0.0 | 0.00 | 0.00 | 0.00 | 93 | 1010.2 |
| 20260507054549 | 12 | 203 | 0.0 | 0.0 | 0.00 | 0.00 | 0.00 | 92 | 1010.3 |
| 20260507054011 | 12 | 229 | 0.0 | 0.0 | 0.00 | 0.00 | 0.00 | 92 | 1010.4 |
| 20260507053543 | 13 | 229 | 0.0 | 0.0 | 0.00 | 0.00 | 0.00 | 92 | 1010.1 |
| 20260507053006 | 13 | 229 | 0.0 | 0.0 | 0.00 | 0.00 | 0.00 | 92 | 1010.4 |
| 20260507052527 | 13 | 193 | 0.0 | 0.0 | 0.00 | 0.00 | 0.00 | 92 | 1010.5 |
| 20260507052009 | 13 | 218 | 0.0 | 0.0 | 0.00 | 0.00 | 0.00 | 91 | 1010.5 |
| 20260507051535 | 13 | 218 | 0.0 | 0.0 | 0.00 | 0.00 | 0.00 | 91 | 1010.4 |
| 20260507051014 | 13 | 180 | 0.0 | 0.0 | 0.00 | 0.00 | 0.00 | 91 | 1010.3 |
| 20260507050534 | 13 | 232 | 0.0 | 0.0 | 0.00 | 0.00 | 0.00 | 90 | 1010.5 |
| 20260507050056 | 13 | 229 | 0.0 | 1.6 | 0.00 | 0.00 | 0.00 | 90 | 1010.6 |
| 20260507045537 | 13 | 273 | 0.0 | 1.6 | 0.00 | 0.00 | 0.00 | 89 | 1010.5 |
| 20260507045059 | 13 | 186 | 0.0 | 1.6 | 0.00 | 0.00 | 0.00 | 88 | 1010.3 |
| 20260507045002 | 14 | 166 | 0.0 | 1.6 | 0.00 | 0.00 | 0.00 | 88 | 1010.4 |
| 20260507044547 | 14 | 206 | 0.0 | 1.6 | 0.00 | 0.00 | 0.00 | 88 | 1010.4 |
| 20260507044017 | 14 | 230 | 0.0 | 1.6 | 0.00 | 0.00 | 0.00 | 87 | 1010.2 |
| 20260507043530 | 15 | 184 | 0.0 | 0.0 | 0.00 | 0.00 | 0.00 | 87 | 1010.2 |
| 20260507043011 | 15 | 116 | 0.0 | 14.5 | 0.00 | 0.00 | 0.00 | 87 | 1010.2 |
| 20260507042535 | 15 | 151 | 0.0 | 14.5 | 0.00 | 0.00 | 0.00 | 86 | 1010.3 |
| 20260507042054 | 15 | 192 | 0.0 | 1.6 | 0.00 | 0.00 | 0.00 | 86 | 1010.3 |
| 20260507041537 | 15 | 192 | 0.0 | 9.7 | 0.00 | 0.00 | 0.00 | 86 | 1010.2 |
| 20260507041054 | 15 | 103 | 0.0 | 9.7 | 0.00 | 0.00 | 0.00 | 85 | 1010.2 |
| 20260507040539 | 16 | 200 | 0.0 | 0.0 | 0.00 | 0.00 | 0.00 | 85 | 1010.2 |
| 20260507040017 | 16 | 201 | 0.0 | 0.0 | 0.00 | 0.00 | 0.00 | 85 | 1009.7 |
| 20260507035549 | 16 | 227 | 0.0 | 0.0 | 0.00 | 0.00 | 0.00 | 84 | 1009.6 |
| 20260507035011 | 16 | 210 | 0.0 | 0.0 | 0.00 | 0.00 | 0.00 | 84 | 1009.6 |
| 20260507034532 | 16 | 225 | 0.0 | 0.0 | 0.00 | 0.00 | 0.00 | 83 | 1009.6 |
| 20260507034008 | 16 | 230 | 0.0 | 0.0 | 0.00 | 0.00 | 0.00 | 83 | 1009.4 |
| 20260507033537 | 16 | 166 | 0.0 | 1.6 | 0.00 | 0.00 | 0.00 | 83 | 1009.3 |
| 20260507033056 | 16 | 200 | 0.0 | 1.6 | 0.00 | 0.00 | 0.00 | 83 | 1009.6 |
| 20260507032537 | 16 | 98 | 0.0 | 0.0 | 0.00 | 0.00 | 0.00 | 83 | 1009.7 |
| 20260507032057 | 16 | 145 | 0.0 | 0.0 | 0.00 | 0.00 | 0.00 | 83 | 1009.6 |
| 20260507032000 | 16 | 174 | 0.0 | 0.0 | 0.00 | 0.00 | 0.00 | 83 | 1009.7 |
| 20260507031541 | 16 | 241 | 0.0 | 0.0 | 0.00 | 0.00 | 0.00 | 83 | 1009.6 |
| 20260507031058 | 16 | 158 | 0.0 | 0.0 | 0.00 | 0.00 | 0.00 | 83 | 1009.5 |
| 20260507030521 | 16 | 240 | 0.0 | 0.0 | 0.00 | 0.00 | 0.00 | 83 | 1009.5 |
| 20260507030002 | 16 | 211 | 0.0 | 0.0 | 0.00 | 0.00 | 0.00 | 84 | 1009.3 |
| 20260507025527 | 17 | 186 | 0.0 | 0.0 | 0.00 | 0.00 | 0.00 | 84 | 1009.2 |
| 20260507025004 | 17 | 191 | 0.0 | 3.2 | 0.00 | 0.00 | 0.00 | 85 | 1009.3 |
| 20260507024530 | 17 | 198 | 0.0 | 3.2 | 0.00 | 0.00 | 0.00 | 85 | 1009.2 |
| 20260507024053 | 17 | 160 | 0.0 | 3.2 | 0.00 | 0.00 | 0.00 | 87 | 1009.1 |
| 20260507023533 | 17 | 46 | 0.0 | 0.0 | 0.00 | 0.00 | 0.00 | 88 | 1009.1 |
| 20260507023049 | 17 | 135 | 0.0 | 0.0 | 0.00 | 0.00 | 0.00 | 88 | 1009.1 |
| 20260507022531 | 17 | 198 | 0.0 | 0.0 | 0.00 | 0.00 | 0.00 | 88 | 1008.9 |
| 20260507022049 | 17 | 116 | 0.0 | 0.0 | 0.00 | 0.00 | 0.00 | 88 | 1008.9 |
| 20260507021532 | 18 | 185 | 0.0 | 1.6 | 0.00 | 0.00 | 0.00 | 88 | 1008.6 |
| 20260507021052 | 18 | 185 | 0.0 | 0.0 | 0.00 | 0.00 | 0.00 | 88 | 1008.8 |
| 20260507020537 | 18 | 243 | 0.0 | 0.0 | 0.00 | 0.00 | 0.00 | 88 | 1008.8 |
| 20260507020106 | 18 | 143 | 0.0 | 0.0 | 0.00 | 0.00 | 0.00 | 88 | 1008.7 |
| 20260507015522 | 18 | 132 | 0.0 | 0.0 | 0.00 | 0.00 | 0.00 | 87 | 1009.0 |
| 20260507015100 | 18 | 116 | 0.0 | 0.0 | 0.00 | 0.00 | 0.00 | 87 | 1009.0 |
| 20260507014517 | 18 | 121 | 0.0 | 0.0 | 0.00 | 0.00 | 0.00 | 87 | 1008.7 |
| 20260507014055 | 18 | 248 | 0.0 | 0.0 | 0.00 | 0.00 | 0.00 | 87 | 1008.5 |
| 20260507013520 | 18 | 161 | 0.0 | 0.0 | 0.00 | 0.00 | 0.00 | 87 | 1008.9 |
| 20260507013058 | 18 | 260 | 0.0 | 0.0 | 0.00 | 0.00 | 0.00 | 87 | 1009.0 |
| 20260507012523 | 18 | 293 | 0.0 | 1.6 | 0.00 | 0.00 | 0.00 | 87 | 1008.9 |
| 20260507012043 | 18 | 178 | 0.0 | 1.6 | 0.00 | 0.00 | 0.00 | 87 | 1008.8 |
| 20260507011531 | 18 | 108 | 0.0 | 0.0 | 0.00 | 0.00 | 0.00 | 87 | 1008.9 |
| 20260507011010 | 18 | 134 | 0.0 | 0.0 | 0.00 | 0.00 | 0.00 | 88 | 1009.0 |
| 20260507010531 | 18 | 174 | 0.0 | 0.0 | 0.00 | 0.00 | 0.00 | 88 | 1009.0 |
| 20260507010101 | 18 | 92 | 0.0 | 0.0 | 0.00 | 0.00 | 0.00 | 88 | 1009.0 |
| 20260507005522 | 18 | 58 | 0.0 | 0.0 | 0.00 | 0.00 | 0.00 | 88 | 1008.8 |
| 20260507005051 | 18 | 58 | 0.0 | 0.0 | 0.00 | 0.00 | 0.00 | 88 | 1008.6 |
| 20260507004517 | 18 | 58 | 0.0 | 0.0 | 0.00 | 0.00 | 0.00 | 88 | 1008.6 |
| 20260507004046 | 18 | 37 | 0.0 | 0.0 | 0.00 | 0.00 | 0.00 | 88 | 1008.6 |
| 20260507003533 | 19 | 37 | 0.0 | 0.0 | 0.00 | 0.00 | 0.00 | 88 | 1008.5 |
| 20260507003052 | 19 | 37 | 0.0 | 0.0 | 0.00 | 0.00 | 0.00 | 87 | 1008.3 |
| 20260507002516 | 19 | 36 | 0.0 | 0.0 | 0.00 | 0.00 | 0.00 | 87 | 1008.5 |
| 20260507002051 | 19 | 37 | 0.0 | 0.0 | 0.00 | 0.00 | 0.00 | 87 | 1008.4 |
| 20260507001515 | 19 | 37 | 0.0 | 0.0 | 0.00 | 0.00 | 0.00 | 87 | 1008.2 |
| 20260507001036 | 19 | 29 | 0.0 | 0.0 | 0.00 | 0.00 | 0.00 | 87 | 1008.2 |
| 20260507000514 | 19 | 41 | 0.0 | 0.0 | 0.00 | 0.00 | 0.00 | 87 | 1008.2 |
| 20260507000042 | 19 | 50 | 0.0 | 0.0 | 0.00 | 0.00 | 0.00 | 86 | 1008.1 |
| 20260506235517 | 19 | 63 | 0.0 | 0.0 | 0.00 | 0.00 | 0.00 | 86 | 1008.1 |
| 20260506235040 | 20 | 48 | 0.0 | 0.0 | 0.00 | 0.00 | 0.00 | 86 | 1008.1 |
| 20260506234522 | 20 | 73 | 0.0 | 0.0 | 0.00 | 0.00 | 0.00 | 86 | 1008.0 |
| 20260506234046 | 20 | 21 | 0.0 | 0.0 | 0.00 | 0.00 | 0.00 | 86 | 1007.6 |
| 20260506233517 | 20 | 21 | 0.0 | 0.0 | 0.00 | 0.00 | 0.00 | 86 | 1007.7 |
| 20260506233054 | 20 | 21 | 0.0 | 0.0 | 0.00 | 0.00 | 0.00 | 86 | 1007.9 |
| 20260506232512 | 20 | 66 | 0.0 | 0.0 | 0.00 | 0.00 | 0.00 | 85 | 1007.9 |
| 20260506232032 | 20 | 61 | 0.0 | 0.0 | 0.00 | 0.00 | 0.00 | 85 | 1007.6 |
| 20260506231513 | 20 | 62 | 0.0 | 0.0 | 0.00 | 0.00 | 0.00 | 85 | 1007.6 |
| 20260506231040 | 20 | 38 | 0.0 | 0.0 | 0.00 | 0.00 | 0.00 | 85 | 1007.6 |
| 20260506230514 | 20 | 54 | 0.0 | 0.0 | 0.00 | 0.00 | 0.00 | 85 | 1007.6 |
| 20260506230037 | 20 | 54 | 0.0 | 0.0 | 0.00 | 0.00 | 0.00 | 85 | 1007.7 |
| 20260506225514 | 20 | 22 | 0.0 | 0.0 | 0.00 | 0.00 | 0.00 | 85 | 1007.7 |
| 20260506225038 | 20 | 22 | 0.0 | 0.0 | 0.00 | 0.00 | 0.00 | 84 | 1007.7 |
| 20260506224559 | 20 | 5 | 0.0 | 0.0 | 0.00 | 0.00 | 0.00 | 85 | 1007.6 |
| 20260506224041 | 20 | 69 | 0.0 | 0.0 | 0.00 | 0.00 | 0.00 | 84 | 1007.4 |
| 20260506223558 | 20 | 23 | 0.0 | 0.0 | 0.00 | 0.00 | 0.00 | 84 | 1007.4 |
| 20260506223024 | 20 | 23 | 0.0 | 0.0 | 0.00 | 0.00 | 0.00 | 84 | 1007.5 |
| 20260506222600 | 20 | 23 | 0.0 | 0.0 | 0.00 | 0.00 | 0.00 | 84 | 1007.6 |
| 20260506222502 | 20 | 23 | 0.0 | 0.0 | 0.00 | 0.00 | 0.00 | 84 | 1007.6 |
| 20260506222028 | 20 | 20 | 0.0 | 0.0 | 0.00 | 0.00 | 0.00 | 84 | 1007.6 |
| 20260506221547 | 20 | 321 | 0.0 | 0.0 | 0.00 | 0.00 | 0.00 | 84 | 1007.6 |
| 20260506221008 | 20 | 314 | 0.0 | 0.0 | 0.00 | 0.00 | 0.00 | 84 | 1007.7 |
| 20260506220546 | 20 | 25 | 0.0 | 0.0 | 0.00 | 0.00 | 0.00 | 84 | 1007.6 |
| 20260506220007 | 20 | 60 | 0.0 | 0.0 | 0.00 | 0.00 | 0.00 | 84 | 1007.6 |
| 20260506215528 | 20 | 60 | 0.0 | 0.0 | 0.00 | 0.00 | 0.00 | 84 | 1007.6 |
| 20260506215007 | 20 | 52 | 0.0 | 0.0 | 0.00 | 0.00 | 0.00 | 83 | 1007.5 |
| 20260506214528 | 21 | 60 | 0.0 | 0.0 | 0.00 | 0.00 | 0.00 | 83 | 1007.5 |
| 20260506214047 | 21 | 349 | 0.0 | 0.0 | 0.00 | 0.00 | 0.00 | 83 | 1007.5 |
| 20260506213535 | 21 | 61 | 0.0 | 0.0 | 0.00 | 0.00 | 0.00 | 82 | 1007.4 |
| 20260506213052 | 21 | 322 | 0.0 | 0.0 | 0.00 | 0.00 | 0.00 | 83 | 1007.2 |
| 20260506212516 | 21 | 34 | 0.0 | 0.0 | 0.00 | 0.00 | 0.00 | 83 | 1007.2 |
| 20260506212054 | 21 | 37 | 0.0 | 0.0 | 0.00 | 0.00 | 0.00 | 82 | 1007.2 |
| 20260506211517 | 21 | 33 | 0.0 | 3.2 | 0.00 | 0.00 | 0.00 | 83 | 1007.2 |
| 20260506211056 | 21 | 13 | 0.0 | 3.2 | 0.00 | 0.00 | 0.00 | 82 | 1007.1 |
| 20260506210520 | 21 | 298 | 0.0 | 3.2 | 0.00 | 0.00 | 0.00 | 82 | 1007.2 |
| 20260506210049 | 21 | 36 | 0.0 | 3.2 | 0.00 | 0.00 | 0.00 | 82 | 1007.0 |
| 20260506205520 | 21 | 70 | 0.0 | 3.2 | 0.00 | 0.00 | 0.00 | 82 | 1007.1 |
| 20260506205046 | 21 | 329 | 0.0 | 3.2 | 0.00 | 0.00 | 0.00 | 83 | 1007.1 |
| 20260506204514 | 21 | 63 | 0.0 | 0.0 | 0.00 | 0.00 | 0.00 | 83 | 1006.9 |
| 20260506204053 | 20 | 57 | 0.0 | 1.6 | 0.00 | 0.00 | 0.00 | 83 | 1006.8 |
| 20260506203516 | 20 | 55 | 0.0 | 1.6 | 0.00 | 0.00 | 0.00 | 83 | 1006.9 |
| 20260506203047 | 20 | 20 | 0.0 | 0.0 | 0.00 | 0.00 | 0.00 | 83 | 1007.0 |
| 20260506202518 | 21 | 51 | 0.0 | 0.0 | 0.00 | 0.00 | 0.00 | 82 | 1007.0 |
| 20260506202040 | 21 | 59 | 0.0 | 3.2 | 0.00 | 0.00 | 0.00 | 82 | 1007.1 |
| 20260506201528 | 21 | 77 | 0.0 | 3.2 | 0.00 | 0.00 | 0.00 | 81 | 1006.9 |
| 20260506201040 | 21 | 9 | 0.0 | 1.6 | 0.00 | 0.00 | 0.00 | 81 | 1007.0 |
| 20260506200557 | 21 | 321 | 0.0 | 1.6 | 0.00 | 0.00 | 0.00 | 82 | 1006.9 |
| 20260506200042 | 21 | 297 | 0.0 | 1.6 | 0.00 | 0.00 | 0.00 | 82 | 1007.0 |
| 20260506195512 | 21 | 73 | 0.0 | 6.4 | 0.00 | 0.00 | 0.00 | 82 | 1007.0 |
| 20260506195037 | 21 | 56 | 0.0 | 8.0 | 0.00 | 0.00 | 0.00 | 82 | 1007.0 |
| 20260506194514 | 21 | 320 | 0.0 | 16.1 | 0.00 | 0.00 | 0.00 | 82 | 1007.0 |
| 20260506194036 | 21 | 357 | 1.6 | 16.1 | 0.00 | 0.00 | 0.00 | 81 | 1007.0 |
| 20260506193553 | 21 | 95 | 0.0 | 11.3 | 0.00 | 0.00 | 0.00 | 82 | 1007.1 |
| 20260506193044 | 21 | 60 | 0.0 | 11.3 | 0.00 | 0.00 | 0.00 | 83 | 1007.1 |
| 20260506192558 | 21 | 31 | 0.0 | 11.3 | 0.00 | 0.00 | 0.00 | 83 | 1007.1 |
| 20260506192024 | 21 | 335 | 0.0 | 1.6 | 0.00 | 0.00 | 0.00 | 83 | 1007.1 |
| 20260506191559 | 20 | 85 | 0.0 | 0.0 | 0.00 | 0.00 | 0.00 | 83 | 1007.1 |
| 20260506191018 | 20 | 72 | 0.0 | 0.0 | 0.00 | 0.00 | 0.00 | 83 | 1007.2 |
| 20260506190543 | 20 | 64 | 0.0 | 0.0 | 0.00 | 0.00 | 0.00 | 84 | 1007.2 |
| 20260506190027 | 20 | 13 | 0.0 | 3.2 | 0.00 | 0.00 | 0.00 | 84 | 1007.3 |
| 20260506185546 | 20 | 306 | 0.0 | 3.2 | 0.00 | 0.00 | 0.00 | 85 | 1007.4 |
| 20260506185031 | 20 | 34 | 0.0 | 3.2 | 0.00 | 0.00 | 0.00 | 86 | 1007.5 |
| 20260506184551 | 19 | 59 | 0.0 | 1.6 | 0.00 | 0.00 | 0.00 | 86 | 1007.6 |
| 20260506184032 | 19 | 30 | 0.0 | 4.8 | 0.00 | 0.00 | 0.00 | 86 | 1007.7 |
| 20260506183550 | 19 | 84 | 0.0 | 9.7 | 0.00 | 0.00 | 0.00 | 87 | 1007.7 |
| 20260506183031 | 18 | 44 | 0.0 | 14.5 | 0.00 | 0.00 | 0.00 | 86 | 1007.7 |
| 20260506182554 | 18 | 36 | 0.0 | 14.5 | 0.00 | 0.00 | 0.00 | 87 | 1007.8 |
| 20260506182035 | 18 | 53 | 0.0 | 6.4 | 0.00 | 0.00 | 0.00 | 87 | 1007.7 |
| 20260506181554 | 18 | 302 | 0.0 | 14.5 | 0.00 | 0.00 | 0.00 | 87 | 1007.6 |
| 20260506181020 | 18 | 338 | 0.0 | 4.8 | 0.00 | 0.00 | 0.00 | 87 | 1007.8 |
| 20260506180556 | 18 | 68 | 0.0 | 3.2 | 0.00 | 0.00 | 0.00 | 87 | 1007.9 |
| 20260506180018 | 18 | 66 | 0.0 | 14.5 | 0.00 | 0.00 | 0.00 | 88 | 1007.9 |
| 20260506175554 | 18 | 345 | 0.0 | 14.5 | 0.00 | 0.00 | 0.00 | 88 | 1008.0 |
| 20260506175021 | 18 | 323 | 0.0 | 8.0 | 0.00 | 0.00 | 0.00 | 88 | 1007.9 |
| 20260506174558 | 18 | 13 | 0.0 | 8.0 | 0.00 | 0.00 | 0.00 | 89 | 1008.0 |
| 20260506174024 | 18 | 8 | 0.0 | 17.7 | 0.00 | 0.00 | 0.00 | 89 | 1008.0 |
| 20260506173557 | 17 | 47 | 0.0 | 17.7 | 0.00 | 0.00 | 0.00 | 89 | 1007.9 |
| 20260506173026 | 17 | 45 | 0.0 | 11.3 | 0.00 | 0.00 | 0.00 | 90 | 1007.9 |
| 20260506172505 | 17 | 76 | 1.6 | 11.3 | 0.00 | 0.00 | 0.00 | 90 | 1007.9 |
| 20260506172031 | 17 | 326 | 0.0 | 8.0 | 0.00 | 0.00 | 0.00 | 90 | 1008.0 |
| 20260506171555 | 17 | 323 | 0.0 | 14.5 | 0.00 | 0.00 | 0.00 | 90 | 1008.1 |
| 20260506171030 | 17 | 68 | 3.2 | 14.5 | 0.00 | 0.00 | 0.00 | 90 | 1008.1 |
| 20260506170549 | 17 | 323 | 0.0 | 12.9 | 0.00 | 0.00 | 0.00 | 91 | 1008.1 |
| 20260506170026 | 17 | 49 | 0.0 | 9.7 | 0.00 | 0.00 | 0.00 | 91 | 1008.1 |
| 20260506165509 | 17 | 73 | 0.0 | 8.0 | 0.00 | 0.00 | 0.00 | 92 | 1008.1 |
| 20260506165032 | 17 | 65 | 0.0 | 8.0 | 0.00 | 0.00 | 0.00 | 92 | 1008.1 |
| 20260506164549 | 17 | 334 | 0.0 | 8.0 | 0.00 | 0.00 | 0.00 | 92 | 1008.1 |
| 20260506164031 | 16 | 82 | 0.0 | 14.5 | 0.00 | 0.00 | 0.00 | 92 | 1008.4 |
| 20260506163551 | 16 | 47 | 0.0 | 14.5 | 0.00 | 0.00 | 0.00 | 92 | 1008.3 |
| 20260506163030 | 16 | 89 | 0.0 | 8.0 | 0.00 | 0.00 | 0.00 | 93 | 1008.4 |
| 20260506162551 | 16 | 307 | 0.0 | 9.7 | 0.00 | 0.00 | 0.00 | 93 | 1008.3 |
| 20260506162009 | 16 | 306 | 0.0 | 12.9 | 0.00 | 0.00 | 0.00 | 93 | 1008.2 |
| 20260506161533 | 16 | 68 | 1.6 | 19.3 | 0.00 | 0.00 | 0.00 | 93 | 1008.3 |
| 20260506161007 | 16 | 34 | 0.0 | 12.9 | 0.00 | 0.00 | 0.00 | 93 | 1008.4 |
| 20260506160535 | 16 | 37 | 0.0 | 12.9 | 0.00 | 0.00 | 0.00 | 93 | 1008.3 |
| 20260506160015 | 16 | 6 | 0.0 | 3.2 | 0.00 | 0.00 | 0.00 | 93 | 1008.4 |
| 20260506155533 | 16 | 353 | 0.0 | 4.8 | 0.00 | 0.00 | 0.00 | 94 | 1008.4 |
| 20260506155049 | 16 | 340 | 0.0 | 4.8 | 0.00 | 0.00 | 0.00 | 94 | 1008.4 |
| 20260506154537 | 16 | 38 | 0.0 | 1.6 | 0.00 | 0.00 | 0.00 | 94 | 1008.4 |
| 20260506154019 | 16 | 316 | 0.0 | 17.7 | 0.00 | 0.00 | 0.00 | 94 | 1008.6 |
| 20260506153536 | 16 | 46 | 0.0 | 17.7 | 0.00 | 0.00 | 0.00 | 93 | 1008.7 |
| 20260506153052 | 16 | 49 | 0.0 | 8.0 | 0.00 | 0.00 | 0.00 | 94 | 1008.6 |
| 20260506152533 | 16 | 314 | 0.0 | 3.2 | 0.00 | 0.00 | 0.00 | 93 | 1008.5 |
| 20260506152054 | 16 | 336 | 0.0 | 1.6 | 0.00 | 0.00 | 0.00 | 93 | 1008.6 |
| 20260506151518 | 16 | 324 | 0.0 | 3.2 | 0.00 | 0.00 | 0.00 | 93 | 1008.7 |
| 20260506151055 | 16 | 5 | 0.0 | 4.8 | 0.00 | 0.00 | 0.00 | 93 | 1008.8 |
| 20260506150519 | 16 | 40 | 0.0 | 4.8 | 0.00 | 0.00 | 0.00 | 93 | 1008.9 |
| 20260506150056 | 16 | 77 | 0.0 | 3.2 | 0.00 | 0.00 | 0.00 | 93 | 1009.0 |
| 20260506145521 | 15 | 70 | 0.0 | 9.7 | 0.00 | 0.00 | 0.00 | 93 | 1009.1 |
| 20260506145042 | 15 | 317 | 0.0 | 9.7 | 0.00 | 0.00 | 0.00 | 93 | 1009.3 |
| 20260506144520 | 15 | 290 | 0.0 | 9.7 | 0.00 | 0.00 | 0.00 | 93 | 1009.4 |
| 20260506144041 | 15 | 323 | 0.0 | 11.3 | 0.00 | 0.00 | 0.00 | 93 | 1009.2 |
| 20260506143519 | 15 | 70 | 0.0 | 14.5 | 0.00 | 0.00 | 0.00 | 93 | 1009.2 |
| 20260506143040 | 15 | 297 | 0.0 | 14.5 | 0.00 | 0.00 | 0.00 | 93 | 1009.3 |
| 20260506142515 | 16 | 290 | 0.0 | 0.0 | 0.00 | 0.00 | 0.00 | 93 | 1009.1 |
| 20260506142042 | 16 | 59 | 0.0 | 0.0 | 0.00 | 0.00 | 0.00 | 93 | 1009.0 |
| 20260506141559 | 16 | 347 | 0.0 | 0.0 | 0.00 | 0.00 | 0.00 | 93 | 1009.2 |
| 20260506141039 | 16 | 350 | 0.0 | 1.6 | 0.00 | 0.00 | 0.00 | 92 | 1009.0 |
| 20260506140559 | 16 | 52 | 0.0 | 3.2 | 0.00 | 0.00 | 0.00 | 92 | 1009.0 |
| 20260506140501 | 16 | 1 | 0.0 | 3.2 | 0.00 | 0.00 | 0.00 | 92 | 1009.0 |
| 20260506140052 | 16 | 310 | 0.0 | 3.2 | 0.00 | 0.00 | 0.00 | 92 | 1009.1 |
| 20260506135559 | 16 | 315 | 0.0 | 3.2 | 0.00 | 0.00 | 0.00 | 92 | 1009.2 |
| 20260506135503 | 16 | 72 | 0.0 | 1.6 | 0.00 | 0.00 | 0.00 | 92 | 1009.2 |
| 20260506135025 | 16 | 46 | 0.0 | 0.0 | 0.00 | 0.00 | 0.00 | 92 | 1009.2 |
| 20260506134558 | 16 | 308 | 0.0 | 11.3 | 0.00 | 0.00 | 0.00 | 92 | 1009.4 |
| 20260506134023 | 16 | 6 | 0.0 | 11.3 | 0.00 | 0.00 | 0.00 | 91 | 1009.5 |
| 20260506133503 | 16 | 353 | 0.0 | 12.9 | 0.00 | 0.00 | 0.00 | 91 | 1009.7 |
| 20260506133019 | 16 | 23 | 0.0 | 12.9 | 0.00 | 0.00 | 0.00 | 91 | 1009.8 |
| 20260506132541 | 16 | 359 | 0.0 | 1.6 | 0.00 | 0.00 | 0.00 | 91 | 1009.9 |
| 20260506132023 | 16 | 70 | 0.0 | 1.6 | 0.00 | 0.00 | 0.00 | 91 | 1009.8 |
| 20260506131543 | 16 | 39 | 0.0 | 1.6 | 0.00 | 0.00 | 0.00 | 91 | 1009.5 |
| 20260506131026 | 16 | 67 | 0.0 | 1.6 | 0.00 | 0.00 | 0.00 | 90 | 1009.4 |
| 20260506130546 | 16 | 69 | 0.0 | 0.0 | 0.00 | 0.00 | 0.00 | 90 | 1009.3 |
| 20260506130024 | 16 | 42 | 0.0 | 0.0 | 0.00 | 0.00 | 0.00 | 90 | 1009.2 |
| 20260506125541 | 16 | 307 | 0.0 | 0.0 | 0.00 | 0.00 | 0.00 | 89 | 1009.1 |
| 20260506125059 | 16 | 25 | 0.0 | 1.6 | 0.00 | 0.00 | 0.00 | 89 | 1009.1 |
| 20260506125010 | 16 | 47 | 0.0 | 1.6 | 0.00 | 0.00 | 0.00 | 89 | 1009.1 |